This is the latest recevied weather packets stored in our database for station/object K7KAZ. If no packets are shown the sender has not sent any weather packets the latest 10 day(s).
| Time | Temp. | Humidity | Pressure | Rain* | Wind** | Luminosity | Snow |
|---|---|---|---|---|---|---|---|
| 1778098633 | 25.56° C | 26% | 1017.5 hPa | 0 mm | - | 793 W/m² | - |
| 1778098329 | 25° C | 26% | 1017.3 hPa | 0 mm | - | 774 W/m² | - |
| 1778098026 | 24.44° C | 26% | 1017.5 hPa | 0 mm | - | 769 W/m² | - |
| 1778097723 | 25.56° C | 26% | 1017.7 hPa | 0 mm | - | 806 W/m² | - |
| 1778097419 | 25.56° C | 25% | 1018 hPa | 0 mm | - | 683 W/m² | - |
| 1778097115 | 25.56° C | 26% | 1017.6 hPa | 0 mm | - | 678 W/m² | - |
| 1778096813 | 23.89° C | 27% | 1017.7 hPa | 0 mm | - | 741 W/m² | - |
| 1778096509 | 23.89° C | 27% | 1017.9 hPa | 0 mm | - | 703 W/m² | - |
| 1778096207 | 24.44° C | 27% | 1018 hPa | 0 mm | - | 684 W/m² | - |
| 1778095904 | 24.44° C | 27% | 1017.9 hPa | 0 mm | - | 729 W/m² | - |
| 1778095601 | 23.89° C | 27% | 1017.6 hPa | 0 mm | - | 596 W/m² | - |
| 1778095297 | 23.89° C | 27% | 1018.1 hPa | 0 mm | - | 637 W/m² | - |
| 1778094994 | 24.44° C | 26% | 1018 hPa | 0 mm | - | 815 W/m² | - |
| 1778094690 | 23.89° C | 27% | 1018.2 hPa | 0 mm | - | 717 W/m² | - |
| 1778094387 | 23.89° C | 28% | 1018.3 hPa | 0 mm | - | 694 W/m² | - |
| 1778094084 | 23.33° C | 28% | 1018.2 hPa | 0 mm | - | 736 W/m² | - |
| 1778093781 | 23.89° C | 28% | 1018.3 hPa | 0 mm | - | 650 W/m² | - |
| 1778093477 | 23.89° C | 27% | 1018.3 hPa | 0 mm | - | 713 W/m² | - |
| 1778093175 | 23.89° C | 28% | 1018.3 hPa | 0 mm | - | 747 W/m² | - |
| 1778092872 | 23.33° C | 28% | 1018.3 hPa | 0 mm | - | 703 W/m² | - |
| 1778092569 | 23.89° C | 28% | 1018.5 hPa | 0 mm | - | 738 W/m² | - |
| 1778092264 | 23.89° C | 29% | 1018.4 hPa | 0 mm | - | 784 W/m² | - |
| 1778091963 | 23.89° C | 29% | 1018.9 hPa | 0 mm | - | 743 W/m² | - |
| 1778091659 | 23.33° C | 30% | 1018.8 hPa | 0 mm | - | 734 W/m² | - |
| 1778091357 | 22.78° C | 29% | 1018.7 hPa | 0 mm | - | 697 W/m² | - |
* Rain latest hour (hover to see other rain measurements)
** Current wind speed in m/s (hover to see current wind gust speed)